EW2373 Weather Reports


time (UTC)temp
C
wind
direction
speed
KPH
gust
KPH
rain 1hr
cm
rain 24hr
cm
rain mn
cm
humidity
%
barometer
mb
20260504081553 15 222 0.0 0.0 0.00 0.00 0.00 16 1008.9
20260504050024 14 162 0.0 0.0 0.00 0.00 0.00 55 1011.3
20260504044521 15 146 0.0 0.0 0.00 0.00 0.00 55 1011.4
20260504043029 15 218 0.0 0.0 0.00 0.00 0.00 54 1011.3
20260504041509 15 188 0.0 0.0 0.00 0.00 0.00 55 1011.4
20260504040005 15 170 0.0 0.0 0.00 0.00 0.00 55 1011.7
20260504034501 15 203 0.0 0.0 0.00 0.00 0.00 57 1012.4
20260504033102 15 175 0.0 0.0 0.00 0.00 0.00 55 1012.6
20260504031554 15 212 0.0 0.0 0.00 0.00 0.00 55 1012.5
20260504030052 15 153 0.0 0.0 0.00 0.00 0.00 56 1012.4
20260504024549 15 181 0.0 0.0 0.00 0.00 0.00 57 1012.7
20260504023042 15 171 0.0 0.0 0.00 0.00 0.00 56 1012.5
20260504021537 16 212 0.0 0.0 0.00 0.00 0.00 55 1012.5
20260504020048 16 179 0.0 0.0 0.00 0.00 0.00 56 1012.4
20260504014537 16 143 0.0 0.0 0.00 0.00 0.00 55 1012.3
20260504013034 16 159 0.0 0.0 0.00 0.00 0.00 55 1011.9
20260504011521 16 153 0.0 0.0 0.00 0.00 0.00 54 1011.8
20260504010019 16 185 0.0 0.0 0.00 0.00 0.00 53 1012.0
20260504004510 17 185 0.0 0.0 0.00 0.00 0.00 52 1012.0
20260504003008 17 191 0.0 0.0 0.00 0.00 0.00 51 1011.9
20260504001502 18 233 0.0 0.0 0.00 0.00 0.00 48 1012.1
20260504000108 18 206 0.0 0.0 0.00 0.00 0.00 47 1012.3
20260503234556 18 239 0.0 0.0 0.00 0.00 0.00 47 1012.6
20260503233049 19 247 0.0 0.0 0.00 0.00 0.00 47 1012.9
20260503231548 19 245 0.0 0.0 0.00 0.00 0.00 47 1013.0
20260503230107 19 231 0.0 0.0 0.00 0.00 0.00 46 1013.0
20260503224539 19 219 0.0 0.0 0.00 0.00 0.00 46 1012.8
20260503223035 19 262 0.0 0.0 0.00 0.00 0.00 46 1012.5
20260503221530 19 179 0.0 0.0 0.00 0.00 0.00 46 1012.4
20260503220031 19 191 0.0 0.0 0.00 0.00 0.00 47 1012.4
20260503214521 19 222 0.0 0.0 0.00 0.00 0.00 47 1012.7
20260503213017 18 227 0.0 0.0 0.00 0.00 0.00 45 1012.9
20260503211513 18 222 0.0 0.0 0.00 0.00 0.00 47 1013.4
20260503210008 18 205 0.0 0.0 0.00 0.00 0.00 47 1013.6
20260503204503 18 221 0.0 0.0 0.00 0.00 0.00 46 1014.0
20260503203114 18 207 0.0 0.0 0.00 0.00 0.00 47 1014.4
20260503201555 18 236 0.0 0.0 0.00 0.00 0.00 48 1015.0
20260503200050 17 162 0.0 0.0 0.00 0.00 0.00 49 1015.4
20260503194545 17 221 0.0 0.0 0.00 0.00 0.00 48 1016.0
20260503193041 17 226 0.0 0.0 0.00 0.00 0.00 47 1016.3
20260503191544 18 198 0.0 0.0 0.00 0.00 0.00 49 1016.6
20260503190039 17 187 0.0 0.0 0.00 0.00 0.00 47 1016.8
20260503184527 17 210 0.0 0.0 0.00 0.00 0.00 49 1017.1
20260503183021 17 236 0.0 0.0 0.00 0.00 0.00 46 1017.2
20260503181517 17 210 0.0 0.0 0.00 0.00 0.00 46 1017.5
20260503180013 16 233 0.0 0.0 0.00 0.00 0.00 47 1018.0
20260503174507 16 231 0.0 0.0 0.00 0.00 0.00 48 1018.5
20260503173004 16 195 0.0 0.0 0.00 0.00 0.00 47 1018.9
20260503171604 16 203 0.0 0.0 0.00 0.00 0.00 47 1019.4
20260503100106 6 210 0.0 0.0 0.00 0.00 0.00 4 1020.8